[[{"header":{"parameterUnit":"m.s-1","parameterCategory":1,"la1":30.2991,"la2":30.254,"lo1":-89.0895,"lo2":-89.0444,"dy":0.0017,"dx":0.0017,"nx":28,"ny":28,"refTime":"2023-06-21T21:00:00:Z","depth":0,"parameterNumber":2,"parameterNumberName":"U-component_of_WINDS"},"data":[0,0,0,0,0,0,0,0,0,0,0,0,0,0,0,0,0,0,0,0,0,0,0,0,0,0,0,0,0,0,0,0,0,0,0,0,0,0,0,0,0,0,0,0,0,0,0,0,0,0,0,0,0,0,0,0,0,0,7.3511,7.3516,0,7.3923,7.3928,7.3932,7.3997,7.3993,7.3989,7.3986,7.4404,7.4418,7.4432,0,0,0,0,0,0,0,0,0,0,0,0,0,7.2777,7.279,7.3511,7.3516,7.3521,7.3922,7.3928,7.3934,7.3997,7.3993,7.3988,7.3984,7.4399,7.4416,7.4433,0,0,0,0,0,0,0,0,0,0,0,0,0,7.3133,7.2794,7.351,7.3601,7.3614,7.3921,7.3928,7.3935,7.3998,7.3993,7.3987,7.3982,7.4393,7.4414,7.4436,7.468,0,0,7.4502,7.4512,0,0,0,0,0,0,0,0,7.3112,7.316,7.3583,7.3596,7.361,7.3903,7.3823,7.4185,7.4,7.3852,7.3986,7.3979,7.4241,7.4275,7.4364,7.4699,7.4717,7.4504,7.4517,7.4527,7.4533,0,0,0,0,0,0,0,7.3088,7.3142,7.3674,7.3589,7.3606,7.3621,7.3666,7.3891,7.4072,7.3864,7.387,7.3918,7.4247,7.4343,7.4374,7.4723,7.4504,7.4523,7.4536,7.4545,7.5281,7.5287,0,0,0,0,0,0,7.3047,7.3121,7.3661,7.3686,7.3343,7.3639,7.3689,7.3814,7.407,7.4104,7.3922,7.392,7.4309,7.4349,7.4389,7.4693,7.4527,7.4547,7.456,7.5274,7.5282,7.5289,0,0,0,0,0,0,7.3031,7.3095,7.3644,7.3406,7.3477,7.3657,7.3798,7.3825,7.3921,7.4114,7.4146,7.3987,7.4306,7.4359,7.4608,7.4708,7.4557,7.4577,7.5267,7.5277,7.5286,7.5301,0,0,0,0,0,0,7.301,7.3088,7.3183,7.3407,7.3489,7.3856,7.3804,7.3837,7.3959,7.3959,7.4183,7.4215,7.4306,7.4575,7.4629,7.4736,7.4594,7.5258,7.5271,7.5283,7.5292,7.531,7.5325,0,0,0,0,0,7.2983,7.317,7.3188,7.3253,7.3612,7.3862,7.3909,7.4011,7.3967,7.4064,7.4188,7.4208,7.4689,7.46,7.4662,7.4776,7.5253,7.5268,7.5282,7.5285,7.5306,7.5325,0,0,0,0,0,0,7.2952,7.3201,7.3224,7.3489,7.3654,7.3872,7.3997,7.403,7.421,7.4203,7.432,7.437,7.4614,7.472,7.4617,7.5026,7.4967,7.4994,7.4948,7.497,7.4986,7.4955,7.4612,0,0,0,0,0,7.2976,7.3159,7.3367,7.358,7.3662,7.3816,7.3928,7.3993,7.4168,7.4238,7.438,7.4548,7.4738,7.486,7.5045,7.5308,7.5358,7.5417,7.5433,7.5446,7.5468,7.5616,7.5645,7.5337,7.5337,7.5337,0,0,7.3027,7.3186,7.3294,7.3578,7.3714,7.39,7.3874,7.4072,7.4211,7.4268,7.4512,7.4622,7.4818,7.5076,7.5196,7.5172,7.5565,7.5465,7.5473,7.5489,7.5634,7.5663,7.5689,7.5347,7.5345,7.5344,0,0,7.3215,7.3354,7.3548,7.3685,7.3892,7.3993,7.4039,7.4254,7.433,7.4577,7.4624,7.4791,7.5114,7.5252,7.5365,7.5608,7.5633,7.5665,7.575,7.5893,7.5917,7.5939,7.6026,7.6056,7.5686,7.5686,7.5686,0,7.3253,7.3537,7.3643,7.3841,7.3964,7.4026,7.4223,7.435,7.4606,7.4689,7.4659,7.5067,7.5203,7.5494,7.5554,7.5643,7.5699,7.5639,7.5905,7.5929,7.5951,7.6035,7.6067,7.5689,7.5689,7.5688,7.5688,0,7.3572,7.3769,7.39,7.4148,7.4286,7.4482,7.4618,7.4745,7.4798,7.4902,7.5154,7.5319,7.5539,7.5613,7.5666,7.5913,7.5891,7.5882,7.5824,7.5981,7.6062,7.6095,7.5692,7.5691,7.5691,7.569,0,0,7.3752,7.4057,7.4103,7.4217,7.445,7.4603,7.4802,7.5019,7.5126,7.53,7.547,7.5743,7.5736,7.5864,7.5933,7.6058,7.6241,7.6034,7.604,7.6066,7.6523,7.6528,7.6564,7.6259,7.6266,7.6271,7.6507,0,7.3968,7.4326,7.4428,7.473,7.4912,7.4974,7.5148,7.5309,7.5412,7.5581,7.5694,7.5886,7.5863,7.594,7.6067,7.6191,7.6334,7.6176,7.6417,7.6425,7.6366,7.6606,7.6613,7.6827,7.6539,7.6544,7.6548,0,7.4268,7.445,7.477,7.4981,7.5061,7.5215,7.5423,7.5584,7.5768,7.5834,7.5978,7.6036,7.6245,7.6177,7.6467,7.6358,7.6463,7.6539,7.6549,7.6575,7.6495,7.6638,7.6898,7.6929,7.6599,7.6595,7.6592,0,7.4367,7.4692,7.4926,7.5021,7.5272,7.5379,7.5489,7.5668,7.5792,7.5973,7.6055,7.6257,7.6368,7.6523,7.6634,7.6574,7.6915,7.6855,7.6975,7.6972,7.7043,7.7037,7.7322,7.7111,7.7111,7.711,7.7109,0,7.4598,7.4791,7.4974,7.5117,7.5336,7.5452,7.5664,7.5777,7.5936,7.6102,7.6167,7.6321,7.6459,7.6632,7.672,7.6947,7.6996,7.7055,7.7076,7.7049,7.7042,7.7119,7.7107,7.7119,7.7117,7.7115,7.7114,0,7.4745,7.4875,7.5134,7.5352,7.5411,7.5562,7.5748,7.589,7.5995,7.6205,7.6261,7.6426,7.6633,7.676,7.7021,7.7081,7.733,7.7346,7.7269,7.7278,7.739,7.7378,7.7735,7.7787,7.7541,7.7543,7.7545,0,7.4884,7.5034,7.5268,7.5385,7.5496,7.5683,7.581,7.593,7.606,7.6282,7.6397,7.6608,7.6783,7.7111,7.7254,7.7454,7.7475,7.7587,7.7505,7.7474,7.7477,7.7466,7.7481,7.7599,7.7601,7.7603,7.7605,0,7.5116,7.5173,7.5355,7.556,7.5711,7.5878,7.6044,7.6135,7.6283,7.6426,7.6639,7.6775,7.7043,7.7252,7.7465,7.7577,7.7616,7.7629,7.7668,7.7641,7.759,7.7619,7.7305,7.762,7.7619,7.7617,7.7617,7.7616,7.5264,7.5401,7.5587,7.5787,7.5925,7.6079,7.6223,7.6348,7.6528,7.6756,7.6816,7.7039,7.722,7.7511,7.7628,7.7804,7.7787,7.7842,7.7856,7.7868,7.787,7.7562,7.7843,7.7843,7.7842,7.7842,7.7842,0,7.55,7.5623,7.5806,7.6037,7.6195,7.6219,7.6404,7.6534,7.673,7.6896,7.7068,7.7313,7.7516,7.7675,7.7884,7.7994,7.8017,7.8045,7.8037,7.8062,7.7873,7.7819,7.8023,7.8022,7.8022,7.8022,7.8022,7.8022,7.5641,7.5874,7.5953,7.6254,7.6377,7.6596,7.67,7.6842,7.6976,7.7247,7.7416,7.7519,7.7683,7.7904,7.8092,7.8133,7.8207,7.8231,7.8276,7.8095,7.8076,7.8057,7.8007,7.8246,7.8247,7.8451,7.8453,7.8454]},{"header":{"parameterUnit":"m.s-1","parameterCategory":1,"la1":30.2991,"la2":30.254,"lo1":-89.0895,"lo2":-89.0444,"dy":0.0017,"dx":0.0017,"nx":28,"ny":28,"refTime":"2023-06-21T21:00:00:Z","depth":0,"parameterNumber":3,"parameterNumberName":"V-component_of_WINDS"},"data":[0,0,0,0,0,0,0,0,0,0,0,0,0,0,0,0,0,0,0,0,0,0,0,0,0,0,0,0,0,0,0,0,0,0,0,0,0,0,0,0,0,0,0,0,0,0,0,0,0,0,0,0,0,0,0,0,0,0,-1.8474,-1.8474,0,-1.8462,-1.8462,-1.8462,-1.8403,-1.8401,-1.84,-1.8399,-1.8385,-1.8386,-1.8387,0,0,0,0,0,0,0,0,0,0,0,0,0,-1.8445,-1.8446,-1.8474,-1.8474,-1.8473,-1.8462,-1.8462,-1.8462,-1.8403,-1.8401,-1.84,-1.8398,-1.8384,-1.8385,-1.8387,0,0,0,0,0,0,0,0,0,0,0,0,0,-1.8448,-1.8446,-1.8474,-1.8443,-1.844,-1.8462,-1.8462,-1.8462,-1.8403,-1.8401,-1.8399,-1.8397,-1.8384,-1.8385,-1.8387,-1.8437,0,0,-1.8391,-1.8392,0,0,0,0,0,0,0,0,-1.8448,-1.8449,-1.8448,-1.8445,-1.8442,-1.8432,-1.8447,-1.8453,-1.8404,-1.8417,-1.8399,-1.8396,-1.8402,-1.8402,-1.8404,-1.8436,-1.8436,-1.8391,-1.8392,-1.8393,-1.8393,0,0,0,0,0,0,0,-1.8448,-1.8449,-1.8469,-1.8448,-1.8444,-1.843,-1.8428,-1.8448,-1.8421,-1.8416,-1.8412,-1.8411,-1.84,-1.8403,-1.8403,-1.8436,-1.8391,-1.8392,-1.8393,-1.8394,-1.8512,-1.8514,0,0,0,0,0,0,-1.8452,-1.845,-1.8469,-1.8469,-1.844,-1.8432,-1.843,-1.8437,-1.8421,-1.8417,-1.8413,-1.8408,-1.8402,-1.8402,-1.8403,-1.8462,-1.8393,-1.8394,-1.8395,-1.8509,-1.8512,-1.8515,0,0,0,0,0,0,-1.8452,-1.8454,-1.847,-1.8458,-1.8459,-1.8435,-1.8443,-1.8438,-1.8441,-1.8419,-1.8414,-1.8421,-1.84,-1.8401,-1.843,-1.846,-1.8394,-1.8396,-1.8507,-1.851,-1.8513,-1.858,0,0,0,0,0,0,-1.8451,-1.8455,-1.8473,-1.8459,-1.846,-1.8497,-1.8445,-1.8439,-1.8444,-1.8438,-1.8425,-1.8421,-1.8398,-1.8428,-1.8431,-1.8461,-1.8397,-1.8504,-1.8508,-1.8512,-1.8575,-1.8585,-1.8594,0,0,0,0,0,-1.845,-1.8491,-1.8474,-1.8477,-1.8482,-1.8499,-1.8499,-1.8474,-1.8446,-1.8465,-1.8452,-1.8421,-1.8457,-1.8431,-1.8434,-1.8465,-1.8502,-1.8507,-1.8512,-1.857,-1.8583,-1.8594,0,0,0,0,0,0,-1.8508,-1.8489,-1.847,-1.8507,-1.8506,-1.8489,-1.8511,-1.8487,-1.8492,-1.8487,-1.8454,-1.8452,-1.8486,-1.8478,-1.845,-1.8515,-1.8474,-1.848,-1.8518,-1.853,-1.8539,-1.854,-1.8398,0,0,0,0,0,-1.8525,-1.8541,-1.8523,-1.8558,-1.8558,-1.8536,-1.8542,-1.8522,-1.8519,-1.8517,-1.8506,-1.8503,-1.8514,-1.8521,-1.853,-1.8574,-1.8571,-1.8597,-1.8607,-1.8615,-1.862,-1.8645,-1.8657,-1.8532,-1.8531,-1.8531,0,0,-1.856,-1.8552,-1.8563,-1.8569,-1.8566,-1.8583,-1.8535,-1.8554,-1.8567,-1.852,-1.8547,-1.8539,-1.8534,-1.8572,-1.8587,-1.8566,-1.8655,-1.8622,-1.8628,-1.8629,-1.8651,-1.8663,-1.8674,-1.8535,-1.8534,-1.8534,0,0,-1.8633,-1.8629,-1.8658,-1.8656,-1.8652,-1.8637,-1.8645,-1.8633,-1.8626,-1.8654,-1.862,-1.8634,-1.8653,-1.8652,-1.8654,-1.8731,-1.8704,-1.8735,-1.8784,-1.8809,-1.8819,-1.8827,-1.8856,-1.8866,-1.874,-1.8741,-1.8741,0,-1.8677,-1.8702,-1.8676,-1.8698,-1.8703,-1.8664,-1.8694,-1.8693,-1.8692,-1.8696,-1.8673,-1.8698,-1.8692,-1.8729,-1.8749,-1.8751,-1.8759,-1.8735,-1.882,-1.8828,-1.8836,-1.8862,-1.8873,-1.8744,-1.8744,-1.8743,-1.8743,0,-1.8757,-1.8775,-1.8799,-1.8801,-1.8808,-1.8834,-1.8813,-1.8823,-1.8805,-1.8793,-1.8822,-1.8814,-1.8822,-1.883,-1.881,-1.8865,-1.8853,-1.8826,-1.8784,-1.8852,-1.8876,-1.8886,-1.875,-1.8748,-1.8747,-1.8746,0,0,-1.8862,-1.8852,-1.8862,-1.8863,-1.8858,-1.8871,-1.8897,-1.8906,-1.8916,-1.8917,-1.8938,-1.8957,-1.8933,-1.8935,-1.8916,-1.8938,-1.9002,-1.8908,-1.8908,-1.8926,-1.9063,-1.9083,-1.9096,-1.8984,-1.8986,-1.8988,-1.9064,0,-1.8932,-1.8975,-1.8955,-1.9,-1.9018,-1.8983,-1.9006,-1.9005,-1.8996,-1.9009,-1.8998,-1.9013,-1.8979,-1.8981,-1.9001,-1.899,-1.9028,-1.8984,-1.9003,-1.9004,-1.9005,-1.9108,-1.9129,-1.9201,-1.9073,-1.9075,-1.9076,0,-1.9018,-1.9026,-1.9074,-1.9069,-1.9075,-1.9096,-1.9104,-1.9117,-1.9117,-1.9109,-1.9114,-1.9091,-1.9116,-1.9077,-1.9112,-1.9082,-1.9089,-1.9085,-1.9088,-1.9088,-1.9043,-1.9111,-1.9223,-1.9234,-1.909,-1.9089,-1.9088,0,-1.9091,-1.9114,-1.9146,-1.9148,-1.9142,-1.9158,-1.9156,-1.9154,-1.9162,-1.9169,-1.9174,-1.9184,-1.9189,-1.9198,-1.9178,-1.9151,-1.9217,-1.9175,-1.9211,-1.9211,-1.9225,-1.9224,-1.9339,-1.923,-1.923,-1.923,-1.923,0,-1.9171,-1.9202,-1.9179,-1.9198,-1.9233,-1.921,-1.9245,-1.9239,-1.9238,-1.9257,-1.9228,-1.9245,-1.9219,-1.9235,-1.922,-1.9252,-1.9255,-1.9249,-1.9245,-1.9251,-1.9252,-1.9255,-1.9249,-1.9233,-1.9232,-1.9232,-1.9231,0,-1.9257,-1.9242,-1.9276,-1.9269,-1.9268,-1.9294,-1.9288,-1.9307,-1.9297,-1.9321,-1.9326,-1.931,-1.9327,-1.931,-1.9325,-1.9315,-1.9359,-1.9347,-1.9359,-1.9356,-1.9393,-1.939,-1.9513,-1.9529,-1.941,-1.9411,-1.9412,0,-1.9308,-1.9331,-1.9329,-1.934,-1.9341,-1.9359,-1.9367,-1.9347,-1.9357,-1.9361,-1.9379,-1.9395,-1.9406,-1.9435,-1.9425,-1.9438,-1.9426,-1.9469,-1.9427,-1.9434,-1.9427,-1.9426,-1.9429,-1.9476,-1.9478,-1.9479,-1.948,0,-1.9401,-1.9394,-1.9408,-1.9421,-1.9433,-1.9442,-1.9448,-1.9459,-1.9438,-1.9451,-1.947,-1.9479,-1.9497,-1.9512,-1.9523,-1.9521,-1.9497,-1.9494,-1.9503,-1.9509,-1.9516,-1.9513,-1.9382,-1.949,-1.9489,-1.9489,-1.9488,-1.9488,-1.9471,-1.9491,-1.9494,-1.9511,-1.9515,-1.9522,-1.954,-1.9534,-1.955,-1.9564,-1.9551,-1.9574,-1.9576,-1.9587,-1.9589,-1.9607,-1.9589,-1.9601,-1.9604,-1.9608,-1.9614,-1.9514,-1.9608,-1.9608,-1.9608,-1.9608,-1.9607,0,-1.9563,-1.9564,-1.9581,-1.9592,-1.9607,-1.9586,-1.9593,-1.9606,-1.9627,-1.9632,-1.9644,-1.9667,-1.9684,-1.9676,-1.9691,-1.9707,-1.9697,-1.9711,-1.9709,-1.971,-1.9629,-1.962,-1.9719,-1.9719,-1.9719,-1.9719,-1.9719,-1.9719,-1.9612,-1.9646,-1.964,-1.9677,-1.9677,-1.97,-1.9707,-1.9714,-1.9718,-1.9745,-1.9759,-1.9755,-1.9756,-1.9771,-1.9786,-1.9783,-1.979,-1.9809,-1.9802,-1.9726,-1.9715,-1.9705,-1.9696,-1.981,-1.981,-1.9882,-1.9883,-1.9883]}]]